Location: Neuvy Saint Sepulchre
(46.5953°N, 1.8122°E)
Time: 09:37:32
(UTC+02:00)

ISS - Pass Details

Date: 18 July 2021
Orbit: 419 x 421 km, 51.6° (Epoch: 04 August)

Event Time Altitude Azimuth Distance (km) Brightness Sun altitude
Rises 23:45:03 0° 274° (W) 2,369 0.6 -16.1°
Reaches altitude 10° 23:47:16 10° 284° (WNW) 1,505 -0.3 -16.3°
Maximum altitude 23:50:25 35° 352° (N) 694 -2.1 -16.6°
Drops below altitude 10° 23:53:34 10° 61° (ENE) 1,505 -1.0 -16.8°
Sets 23:55:47 0° 70° (ENE) 2,370 0.0 -17.0°
